| time (UTC) | temp C | wind direction | speed KPH | gust KPH | rain 1hr cm | rain 24hr cm | rain mn cm | humidity % | barometer mb |
| 20260509072704 | 11 | 185 | 0.0 | 0.0 | 0.00 | 0.15 | 0.15 | 97 | 1010.7 |
| 20260509072201 | 11 | 185 | 0.0 | 0.0 | 0.13 | 0.15 | 0.15 | 97 | 1010.8 |
| 20260509071657 | 11 | 185 | 0.0 | 0.0 | 0.13 | 0.15 | 0.15 | 97 | 1010.9 |
| 20260509071155 | 11 | 185 | 0.0 | 0.0 | 0.18 | 0.13 | 0.13 | 97 | 1010.8 |
| 20260509070651 | 11 | 185 | 0.0 | 0.0 | 0.18 | 0.13 | 0.13 | 97 | 1010.9 |
| 20260509070148 | 11 | 185 | 0.0 | 0.0 | 0.13 | 0.10 | 0.10 | 97 | 1010.9 |
| 20260509065644 | 11 | 185 | 0.0 | 0.0 | 0.13 | 0.10 | 0.10 | 96 | 1010.7 |
| 20260509065140 | 11 | 185 | 0.0 | 0.0 | 0.13 | 0.10 | 0.10 | 96 | 1010.7 |
| 20260509064637 | 11 | 185 | 0.0 | 0.0 | 0.00 | 0.08 | 0.08 | 96 | 1010.7 |
| 20260509064135 | 11 | 185 | 1.6 | 1.6 | 0.00 | 0.08 | 0.08 | 96 | 1010.5 |
| 20260509063632 | 11 | 184 | 0.0 | 0.0 | 0.00 | 0.08 | 0.08 | 96 | 1010.8 |
| 20260509063128 | 11 | 184 | 3.2 | 3.2 | 0.00 | 0.08 | 0.08 | 96 | 1010.9 |
| 20260509062626 | 11 | 186 | 0.0 | 0.0 | 0.18 | 0.08 | 0.08 | 95 | 1010.6 |
| 20260509062122 | 11 | 186 | 0.0 | 0.0 | 0.18 | 0.08 | 0.08 | 95 | 1010.4 |
| 20260509061619 | 11 | 186 | 0.0 | 1.6 | 0.00 | 0.05 | 0.05 | 95 | 1010.6 |
| 20260509061117 | 11 | 178 | 0.0 | 1.6 | 0.00 | 0.05 | 0.05 | 94 | 1010.6 |
| 20260509060614 | 11 | 201 | 0.0 | 0.0 | 0.00 | 0.05 | 0.05 | 93 | 1010.8 |
| 20260509060110 | 11 | 201 | 0.0 | 0.0 | 0.13 | 0.05 | 0.05 | 92 | 1010.6 |
| 20260509055605 | 11 | 176 | 0.0 | 0.0 | 0.30 | 0.05 | 0.05 | 90 | 1010.8 |
| 20260509055101 | 12 | 188 | 0.0 | 0.0 | 0.18 | 0.03 | 0.03 | 87 | 1011.3 |
| 20260509054558 | 12 | 188 | 0.0 | 0.0 | 0.00 | 0.00 | 0.00 | 86 | 1011.5 |
| 20260509054056 | 12 | 194 | 0.0 | 0.0 | 0.00 | 0.00 | 0.00 | 80 | 1011.5 |
| 20260509053555 | 12 | 193 | 0.0 | 0.0 | 0.00 | 0.00 | 0.00 | 82 | 1011.5 |
| 20260509053051 | 11 | 193 | 0.0 | 0.0 | 0.00 | 0.00 | 0.00 | 83 | 1011.5 |
| 20260509052549 | 11 | 194 | 0.0 | 0.0 | 0.00 | 0.00 | 0.00 | 85 | 1011.2 |
| 20260509052047 | 11 | 193 | 0.0 | 0.0 | 0.00 | 0.00 | 0.00 | 85 | 1011.1 |
| 20260509051545 | 11 | 193 | 0.0 | 0.0 | 0.00 | 0.00 | 0.00 | 85 | 1011.0 |
| 20260509051041 | 11 | 194 | 0.0 | 0.0 | 0.00 | 0.00 | 0.00 | 85 | 1010.8 |
| 20260509050538 | 11 | 194 | 0.0 | 0.0 | 0.00 | 0.00 | 0.00 | 85 | 1010.8 |
| 20260509050034 | 11 | 194 | 0.0 | 1.6 | 0.00 | 0.00 | 0.00 | 86 | 1010.5 |
| 20260509045532 | 11 | 193 | 0.0 | 0.0 | 0.00 | 0.00 | 0.00 | 86 | 1010.5 |
| 20260509045029 | 11 | 193 | 0.0 | 0.0 | 0.00 | 0.00 | 0.00 | 87 | 1010.4 |
| 20260509044526 | 11 | 193 | 0.0 | 0.0 | 0.00 | 0.00 | 0.00 | 85 | 1010.4 |
| 20260509044024 | 11 | 193 | 0.0 | 0.0 | 0.00 | 0.00 | 0.00 | 84 | 1010.5 |
| 20260509043520 | 11 | 193 | 0.0 | 0.0 | 0.00 | 0.00 | 0.00 | 84 | 1010.5 |
| 20260509043016 | 11 | 193 | 0.0 | 0.0 | 0.00 | 0.00 | 0.00 | 84 | 1010.5 |
| 20260509042512 | 11 | 193 | 0.0 | 0.0 | 0.00 | 0.00 | 0.00 | 84 | 1010.4 |
| 20260509042008 | 11 | 193 | 0.0 | 0.0 | 0.00 | 0.00 | 0.00 | 85 | 1010.6 |
| 20260509041505 | 11 | 193 | 0.0 | 0.0 | 0.00 | 0.00 | 0.00 | 85 | 1010.9 |
| 20260509041003 | 11 | 193 | 0.0 | 0.0 | 0.00 | 0.00 | 0.00 | 86 | 1010.7 |
| 20260509040501 | 11 | 193 | 0.0 | 0.0 | 0.00 | 0.00 | 0.00 | 83 | 1010.8 |
| 20260509035957 | 11 | 193 | 0.0 | 0.0 | 0.00 | 0.00 | 0.00 | 82 | 1010.9 |
| 20260509035454 | 11 | 193 | 0.0 | 0.0 | 0.00 | 0.00 | 0.00 | 81 | 1010.9 |
| 20260509034951 | 11 | 193 | 0.0 | 0.0 | 0.00 | 0.00 | 0.00 | 81 | 1010.9 |
| 20260509034449 | 11 | 193 | 0.0 | 0.0 | 0.00 | 0.00 | 0.00 | 82 | 1010.9 |
| 20260509033945 | 11 | 193 | 0.0 | 0.0 | 0.00 | 0.00 | 0.00 | 82 | 1011.0 |
| 20260509033443 | 11 | 193 | 0.0 | 0.0 | 0.00 | 0.00 | 0.00 | 82 | 1011.1 |
| 20260509032939 | 11 | 193 | 0.0 | 0.0 | 0.00 | 0.00 | 0.00 | 82 | 1011.0 |
| 20260509032437 | 11 | 193 | 0.0 | 0.0 | 0.00 | 0.00 | 0.00 | 82 | 1011.0 |
| 20260509031934 | 12 | 193 | 0.0 | 0.0 | 0.00 | 0.00 | 0.00 | 83 | 1011.1 |
| 20260509031431 | 12 | 193 | 0.0 | 0.0 | 0.00 | 0.00 | 0.00 | 82 | 1011.2 |
| 20260509030929 | 12 | 193 | 0.0 | 0.0 | 0.00 | 0.00 | 0.00 | 83 | 1011.1 |
| 20260509030427 | 12 | 193 | 0.0 | 0.0 | 0.00 | 0.00 | 0.00 | 81 | 1011.2 |
| 20260509025924 | 12 | 193 | 0.0 | 0.0 | 0.00 | 0.00 | 0.00 | 81 | 1011.2 |
| 20260509025419 | 12 | 193 | 0.0 | 0.0 | 0.00 | 0.00 | 0.00 | 82 | 1011.2 |
| 20260509024914 | 12 | 193 | 0.0 | 0.0 | 0.00 | 0.00 | 0.00 | 82 | 1011.3 |
| 20260509024411 | 12 | 193 | 0.0 | 0.0 | 0.00 | 0.00 | 0.00 | 82 | 1011.3 |
| 20260509023908 | 12 | 193 | 0.0 | 0.0 | 0.00 | 0.00 | 0.00 | 82 | 1011.4 |
| 20260509023405 | 12 | 193 | 0.0 | 0.0 | 0.00 | 0.00 | 0.00 | 82 | 1011.4 |
| 20260509022901 | 12 | 193 | 0.0 | 0.0 | 0.00 | 0.00 | 0.00 | 80 | 1011.4 |
| 20260509022359 | 12 | 193 | 0.0 | 0.0 | 0.00 | 0.00 | 0.00 | 80 | 1011.3 |
| 20260509021856 | 12 | 193 | 0.0 | 0.0 | 0.00 | 0.00 | 0.00 | 81 | 1011.3 |
| 20260509021353 | 12 | 193 | 0.0 | 0.0 | 0.00 | 0.00 | 0.00 | 82 | 1011.3 |
| 20260509020850 | 12 | 193 | 0.0 | 0.0 | 0.00 | 0.00 | 0.00 | 80 | 1011.3 |
| 20260509020349 | 12 | 193 | 0.0 | 0.0 | 0.00 | 0.00 | 0.00 | 79 | 1011.3 |
| 20260509015845 | 12 | 193 | 0.0 | 0.0 | 0.00 | 0.00 | 0.00 | 78 | 1011.3 |
| 20260509015344 | 12 | 193 | 0.0 | 0.0 | 0.00 | 0.00 | 0.00 | 79 | 1011.3 |
| 20260509014840 | 12 | 193 | 0.0 | 0.0 | 0.00 | 0.00 | 0.00 | 80 | 1011.4 |
| 20260509014337 | 13 | 193 | 0.0 | 0.0 | 0.00 | 0.00 | 0.00 | 81 | 1011.3 |
| 20260509013834 | 13 | 193 | 0.0 | 0.0 | 0.00 | 0.00 | 0.00 | 79 | 1011.3 |
| 20260509013330 | 13 | 193 | 0.0 | 0.0 | 0.00 | 0.00 | 0.00 | 77 | 1011.1 |
| 20260509012826 | 13 | 193 | 0.0 | 0.0 | 0.00 | 0.00 | 0.00 | 78 | 1011.2 |
| 20260509012323 | 13 | 193 | 0.0 | 0.0 | 0.00 | 0.00 | 0.00 | 78 | 1011.1 |
| 20260509011820 | 13 | 193 | 0.0 | 0.0 | 0.00 | 0.00 | 0.00 | 80 | 1011.0 |
| 20260509011318 | 13 | 193 | 0.0 | 0.0 | 0.00 | 0.00 | 0.00 | 80 | 1011.2 |
| 20260509010815 | 13 | 193 | 0.0 | 0.0 | 0.00 | 0.00 | 0.00 | 77 | 1011.1 |
| 20260509010312 | 13 | 193 | 0.0 | 0.0 | 0.00 | 0.00 | 0.00 | 78 | 1011.2 |
| 20260509005810 | 13 | 193 | 0.0 | 0.0 | 0.00 | 0.00 | 0.00 | 80 | 1011.2 |
| 20260509005308 | 13 | 193 | 0.0 | 0.0 | 0.00 | 0.00 | 0.00 | 75 | 1011.1 |
| 20260509004807 | 14 | 193 | 0.0 | 0.0 | 0.00 | 0.00 | 0.00 | 76 | 1011.0 |
| 20260509004304 | 14 | 193 | 0.0 | 0.0 | 0.00 | 0.00 | 0.00 | 74 | 1011.0 |
| 20260509003802 | 14 | 193 | 0.0 | 0.0 | 0.00 | 0.00 | 0.00 | 74 | 1010.9 |
| 20260509003259 | 14 | 193 | 0.0 | 0.0 | 0.00 | 0.00 | 0.00 | 70 | 1010.9 |
| 20260509002757 | 14 | 193 | 0.0 | 0.0 | 0.00 | 0.00 | 0.00 | 72 | 1011.1 |
| 20260509002254 | 14 | 193 | 0.0 | 0.0 | 0.00 | 0.00 | 0.00 | 75 | 1011.0 |
| 20260509001752 | 15 | 193 | 0.0 | 0.0 | 0.00 | 0.00 | 0.00 | 74 | 1011.1 |
| 20260509001247 | 15 | 193 | 0.0 | 0.0 | 0.00 | 0.00 | 0.00 | 72 | 1011.2 |
| 20260509000745 | 15 | 187 | 0.0 | 0.0 | 0.00 | 0.00 | 0.00 | 68 | 1011.2 |
| 20260509000242 | 15 | 187 | 0.0 | 0.0 | 0.00 | 0.00 | 0.00 | 74 | 1011.1 |
| 20260508235739 | 15 | 187 | 0.0 | 0.0 | 0.00 | 0.00 | 0.00 | 75 | 1011.2 |
| 20260508235236 | 15 | 187 | 0.0 | 0.0 | 0.00 | 0.00 | 0.00 | 70 | 1011.3 |
| 20260508234733 | 15 | 187 | 0.0 | 0.0 | 0.00 | 0.00 | 0.00 | 71 | 1011.0 |
| 20260508234229 | 15 | 187 | 0.0 | 0.0 | 0.00 | 0.00 | 0.00 | 70 | 1010.9 |
| 20260508233729 | 16 | 187 | 0.0 | 0.0 | 0.00 | 0.00 | 0.00 | 63 | 1010.8 |
| 20260508233227 | 16 | 188 | 0.0 | 0.0 | 0.00 | 0.00 | 0.00 | 64 | 1010.8 |
| 20260508232724 | 16 | 187 | 0.0 | 0.0 | 0.00 | 0.00 | 0.00 | 71 | 1010.8 |
| 20260508232220 | 16 | 187 | 0.0 | 0.0 | 0.00 | 0.00 | 0.00 | 64 | 1010.7 |
| 20260508231718 | 16 | 187 | 0.0 | 0.0 | 0.00 | 0.00 | 0.00 | 62 | 1010.6 |
| 20260508231214 | 17 | 187 | 0.0 | 0.0 | 0.00 | 0.00 | 0.00 | 57 | 1010.6 |
| 20260508230712 | 17 | 187 | 0.0 | 0.0 | 0.00 | 0.00 | 0.00 | 60 | 1010.5 |
| 20260508230208 | 17 | 187 | 0.0 | 0.0 | 0.00 | 0.00 | 0.00 | 56 | 1010.5 |
| 20260508225706 | 17 | 187 | 0.0 | 0.0 | 0.00 | 0.00 | 0.00 | 60 | 1010.4 |
| 20260508225202 | 17 | 187 | 0.0 | 0.0 | 0.00 | 0.00 | 0.00 | 48 | 1010.4 |
| 20260508224700 | 18 | 187 | 0.0 | 0.0 | 0.00 | 0.00 | 0.00 | 48 | 1010.4 |
| 20260508224157 | 18 | 187 | 0.0 | 0.0 | 0.00 | 0.00 | 0.00 | 50 | 1010.3 |
| 20260508223654 | 18 | 187 | 0.0 | 1.6 | 0.00 | 0.00 | 0.00 | 42 | 1010.4 |
| 20260508223152 | 19 | 190 | 0.0 | 0.0 | 0.00 | 0.00 | 0.00 | 43 | 1010.4 |
| 20260508222649 | 19 | 189 | 0.0 | 0.0 | 0.00 | 0.00 | 0.00 | 40 | 1010.5 |
| 20260508222146 | 20 | 178 | 1.6 | 1.6 | 0.00 | 0.00 | 0.00 | 38 | 1010.6 |
| 20260508221642 | 19 | 190 | 0.0 | 0.0 | 0.00 | 0.00 | 0.00 | 41 | 1010.6 |
| 20260508221138 | 20 | 185 | 1.6 | 1.6 | 0.00 | 0.00 | 0.00 | 39 | 1010.6 |
| 20260508220635 | 20 | 184 | 3.2 | 3.2 | 0.00 | 0.00 | 0.00 | 39 | 1010.4 |
| 20260508220132 | 19 | 173 | 0.0 | 1.6 | 0.00 | 0.00 | 0.00 | 45 | 1010.6 |
| 20260508215628 | 20 | 182 | 0.0 | 1.6 | 0.00 | 0.00 | 0.00 | 44 | 1010.5 |
| 20260508215125 | 20 | 169 | 0.0 | 1.6 | 0.00 | 0.00 | 0.00 | 38 | 1010.6 |
| 20260508214622 | 19 | 182 | 0.0 | 1.6 | 0.00 | 0.00 | 0.00 | 39 | 1010.7 |
| 20260508214119 | 20 | 169 | 1.6 | 1.6 | 0.00 | 0.00 | 0.00 | 42 | 1010.7 |
| 20260508213616 | 20 | 180 | 3.2 | 3.2 | 0.00 | 0.00 | 0.00 | 39 | 1010.7 |
| 20260508213112 | 20 | 133 | 0.0 | 1.6 | 0.00 | 0.00 | 0.00 | 37 | 1010.5 |
| 20260508212608 | 20 | 185 | 0.0 | 1.6 | 0.00 | 0.00 | 0.00 | 37 | 1010.6 |
| 20260508212105 | 20 | 167 | 1.6 | 1.6 | 0.00 | 0.00 | 0.00 | 37 | 1010.8 |
| 20260508211600 | 20 | 154 | 1.6 | 3.2 | 0.00 | 0.00 | 0.00 | 38 | 1010.7 |
| 20260508211057 | 20 | 207 | 6.4 | 6.4 | 0.00 | 0.00 | 0.00 | 36 | 1011.0 |
| 20260508210553 | 20 | 228 | 6.4 | 9.7 | 0.00 | 0.00 | 0.00 | 35 | 1010.7 |
| 20260508210051 | 20 | 221 | 1.6 | 3.2 | 0.00 | 0.00 | 0.00 | 38 | 1011.0 |
| 20260508205548 | 20 | 221 | 3.2 | 3.2 | 0.00 | 0.00 | 0.00 | 37 | 1010.9 |
| 20260508205044 | 21 | 189 | 0.0 | 1.6 | 0.00 | 0.00 | 0.00 | 36 | 1011.0 |
| 20260508204541 | 21 | 142 | 8.0 | 9.7 | 0.00 | 0.00 | 0.00 | 36 | 1011.2 |
| 20260508204037 | 21 | 241 | 4.8 | 6.4 | 0.00 | 0.00 | 0.00 | 36 | 1011.1 |
| 20260508203533 | 22 | 227 | 3.2 | 4.8 | 0.00 | 0.00 | 0.00 | 37 | 1011.0 |
| 20260508203029 | 22 | 211 | 1.6 | 1.6 | 0.00 | 0.00 | 0.00 | 35 | 1011.1 |
| 20260508202526 | 21 | 183 | 0.0 | 3.2 | 0.00 | 0.00 | 0.00 | 40 | 1011.3 |
| 20260508202023 | 21 | 191 | 4.8 | 9.7 | 0.00 | 0.00 | 0.00 | 35 | 1011.3 |
| 20260508201520 | 21 | 179 | 4.8 | 4.8 | 0.00 | 0.00 | 0.00 | 38 | 1011.2 |
| 20260508201016 | 21 | 215 | 1.6 | 1.6 | 0.00 | 0.00 | 0.00 | 40 | 1011.3 |
| 20260508200514 | 20 | 194 | 6.4 | 6.4 | 0.00 | 0.00 | 0.00 | 36 | 1011.3 |
| 20260508200009 | 20 | 162 | 4.8 | 9.7 | 0.00 | 0.00 | 0.00 | 38 | 1011.6 |
| 20260508195506 | 20 | 196 | 3.2 | 3.2 | 0.00 | 0.00 | 0.00 | 37 | 1011.5 |
| 20260508195002 | 20 | 215 | 1.6 | 1.6 | 0.00 | 0.00 | 0.00 | 36 | 1011.6 |
| 20260508194459 | 20 | 197 | 3.2 | 4.8 | 0.00 | 0.00 | 0.00 | 36 | 1012.0 |
| 20260508193956 | 21 | 136 | 8.0 | 11.3 | 0.00 | 0.00 | 0.00 | 36 | 1011.8 |
| 20260508193453 | 22 | 277 | 11.3 | 14.5 | 0.00 | 0.00 | 0.00 | 34 | 1012.0 |
| 20260508192949 | 21 | 136 | 4.8 | 6.4 | 0.00 | 0.00 | 0.00 | 35 | 1012.1 |
| 20260508192446 | 21 | 184 | 3.2 | 4.8 | 0.00 | 0.00 | 0.00 | 37 | 1012.3 |
| 20260508191943 | 22 | 306 | 6.4 | 11.3 | 0.00 | 0.00 | 0.00 | 35 | 1012.1 |
| 20260508191440 | 21 | 225 | 1.6 | 3.2 | 0.00 | 0.00 | 0.00 | 33 | 1012.3 |
| 20260508190937 | 21 | 126 | 9.7 | 11.3 | 0.00 | 0.00 | 0.00 | 37 | 1012.4 |
| 20260508190434 | 21 | 216 | 1.6 | 3.2 | 0.00 | 0.00 | 0.00 | 37 | 1012.3 |
| 20260508185930 | 21 | 168 | 6.4 | 9.7 | 0.00 | 0.00 | 0.00 | 36 | 1012.7 |
| 20260508185428 | 21 | 257 | 8.0 | 11.3 | 0.00 | 0.00 | 0.00 | 37 | 1012.6 |
| 20260508184925 | 20 | 7 | 6.4 | 6.4 | 0.00 | 0.00 | 0.00 | 36 | 1012.9 |
| 20260508184422 | 20 | 218 | 1.6 | 1.6 | 0.00 | 0.00 | 0.00 | 37 | 1013.0 |
| 20260508183919 | 21 | 190 | 6.4 | 6.4 | 0.00 | 0.00 | 0.00 | 36 | 1012.9 |
| 20260508183416 | 20 | 166 | 3.2 | 4.8 | 0.00 | 0.00 | 0.00 | 37 | 1012.9 |
| 20260508182911 | 20 | 195 | 9.7 | 11.3 | 0.00 | 0.00 | 0.00 | 37 | 1013.2 |
| 20260508182409 | 21 | 170 | 8.0 | 9.7 | 0.00 | 0.00 | 0.00 | 37 | 1013.0 |
| 20260508181903 | 20 | 195 | 1.6 | 3.2 | 0.00 | 0.00 | 0.00 | 38 | 1013.3 |
| 20260508181400 | 20 | 185 | 1.6 | 4.8 | 0.00 | 0.00 | 0.00 | 38 | 1013.5 |
| 20260508180858 | 20 | 219 | 1.6 | 1.6 | 0.00 | 0.00 | 0.00 | 41 | 1013.3 |
| 20260508180354 | 20 | 177 | 3.2 | 3.2 | 0.00 | 0.00 | 0.00 | 39 | 1013.5 |
| 20260508175850 | 20 | 263 | 4.8 | 4.8 | 0.00 | 0.00 | 0.00 | 39 | 1013.7 |
| 20260508175347 | 20 | 187 | 3.2 | 6.4 | 0.00 | 0.00 | 0.00 | 39 | 1013.8 |
| 20260508174846 | 20 | 188 | 0.0 | 1.6 | 0.00 | 0.00 | 0.00 | 39 | 1014.0 |
| 20260508174343 | 21 | 198 | 4.8 | 6.4 | 0.00 | 0.00 | 0.00 | 42 | 1013.8 |
| 20260508173839 | 20 | 210 | 4.8 | 9.7 | 0.00 | 0.00 | 0.00 | 39 | 1013.8 |
| 20260508173336 | 20 | 155 | 6.4 | 6.4 | 0.00 | 0.00 | 0.00 | 43 | 1013.9 |
| 20260508172832 | 20 | 219 | 0.0 | 1.6 | 0.00 | 0.00 | 0.00 | 44 | 1014.0 |
| 20260508172329 | 20 | 154 | 3.2 | 4.8 | 0.00 | 0.00 | 0.00 | 43 | 1014.0 |
| 20260508171825 | 20 | 198 | 6.4 | 9.7 | 0.00 | 0.00 | 0.00 | 39 | 1014.0 |
| 20260508171321 | 20 | 203 | 3.2 | 4.8 | 0.00 | 0.00 | 0.00 | 40 | 1014.1 |
| 20260508170819 | 20 | 212 | 4.8 | 9.7 | 0.00 | 0.00 | 0.00 | 41 | 1014.3 |
| 20260508170317 | 19 | 246 | 3.2 | 4.8 | 0.00 | 0.00 | 0.00 | 40 | 1014.2 |
| 20260508165813 | 20 | 202 | 6.4 | 9.7 | 0.00 | 0.00 | 0.00 | 40 | 1014.8 |
| 20260508165311 | 18 | 227 | 1.6 | 1.6 | 0.00 | 0.00 | 0.00 | 39 | 1014.7 |
| 20260508164806 | 19 | 225 | 4.8 | 4.8 | 0.00 | 0.00 | 0.00 | 40 | 1015.0 |
| 20260508164303 | 19 | 223 | 3.2 | 4.8 | 0.00 | 0.00 | 0.00 | 42 | 1014.9 |
| 20260508163801 | 19 | 195 | 6.4 | 11.3 | 0.00 | 0.00 | 0.00 | 39 | 1015.0 |
| 20260508163259 | 18 | 215 | 4.8 | 4.8 | 0.00 | 0.00 | 0.00 | 40 | 1014.8 |
| 20260508162754 | 18 | 166 | 6.4 | 6.4 | 0.00 | 0.00 | 0.00 | 41 | 1015.1 |
| 20260508162251 | 20 | 191 | 9.7 | 12.9 | 0.00 | 0.00 | 0.00 | 40 | 1015.3 |
| 20260508161748 | 18 | 205 | 1.6 | 3.2 | 0.00 | 0.00 | 0.00 | 40 | 1015.3 |
| 20260508161245 | 20 | 350 | 12.9 | 17.7 | 0.00 | 0.00 | 0.00 | 37 | 1015.4 |
| 20260508160743 | 18 | 211 | 3.2 | 4.8 | 0.00 | 0.00 | 0.00 | 43 | 1015.5 |
| 20260508160242 | 17 | 196 | 6.4 | 9.7 | 0.00 | 0.00 | 0.00 | 43 | 1015.9 |
| 20260508155738 | 17 | 234 | 9.7 | 14.5 | 0.00 | 0.00 | 0.00 | 41 | 1015.8 |
| 20260508155235 | 18 | 176 | 1.6 | 1.6 | 0.00 | 0.00 | 0.00 | 42 | 1015.8 |
| 20260508154731 | 18 | 241 | 3.2 | 6.4 | 0.00 | 0.00 | 0.00 | 42 | 1015.8 |
| 20260508154229 | 17 | 352 | 4.8 | 6.4 | 0.00 | 0.00 | 0.00 | 43 | 1015.9 |
| 20260508153726 | 16 | 223 | 0.0 | 0.0 | 0.00 | 0.00 | 0.00 | 45 | 1015.9 |
| 20260508153223 | 17 | 218 | 3.2 | 3.2 | 0.00 | 0.00 | 0.00 | 44 | 1016.0 |
| 20260508152719 | 16 | 220 | 0.0 | 1.6 | 0.00 | 0.00 | 0.00 | 47 | 1015.9 |
| 20260508152215 | 16 | 155 | 1.6 | 3.2 | 0.00 | 0.00 | 0.00 | 43 | 1015.9 |
| 20260508151712 | 16 | 201 | 3.2 | 4.8 | 0.00 | 0.00 | 0.00 | 48 | 1016.0 |
| 20260508151208 | 16 | 304 | 3.2 | 4.8 | 0.00 | 0.00 | 0.00 | 42 | 1016.0 |
| 20260508150705 | 16 | 194 | 4.8 | 4.8 | 0.00 | 0.00 | 0.00 | 46 | 1016.1 |
| 20260508150202 | 16 | 203 | 3.2 | 3.2 | 0.00 | 0.00 | 0.00 | 45 | 1016.1 |
| 20260508145658 | 16 | 215 | 1.6 | 1.6 | 0.00 | 0.00 | 0.00 | 45 | 1016.1 |
| 20260508145154 | 16 | 304 | 8.0 | 9.7 | 0.00 | 0.00 | 0.00 | 44 | 1016.4 |
| 20260508144651 | 16 | 244 | 6.4 | 6.4 | 0.00 | 0.00 | 0.00 | 44 | 1016.3 |
| 20260508144149 | 16 | 223 | 1.6 | 1.6 | 0.00 | 0.00 | 0.00 | 45 | 1016.2 |
| 20260508143647 | 16 | 130 | 3.2 | 3.2 | 0.00 | 0.00 | 0.00 | 46 | 1016.3 |
| 20260508143143 | 17 | 189 | 6.4 | 9.7 | 0.00 | 0.00 | 0.00 | 44 | 1016.2 |
| 20260508142639 | 16 | 149 | 6.4 | 9.7 | 0.00 | 0.00 | 0.00 | 49 | 1016.1 |
| 20260508142136 | 15 | 212 | 1.6 | 1.6 | 0.00 | 0.00 | 0.00 | 52 | 1016.3 |
| 20260508141633 | 14 | 210 | 3.2 | 3.2 | 0.00 | 0.00 | 0.00 | 54 | 1016.1 |
| 20260508141131 | 13 | 213 | 1.6 | 1.6 | 0.00 | 0.00 | 0.00 | 56 | 1016.2 |
| 20260508140628 | 14 | 206 | 3.2 | 3.2 | 0.00 | 0.00 | 0.00 | 53 | 1016.3 |
| 20260508140125 | 14 | 204 | 3.2 | 4.8 | 0.00 | 0.00 | 0.00 | 50 | 1016.3 |
| 20260508135620 | 15 | 252 | 6.4 | 6.4 | 0.00 | 0.00 | 0.00 | 49 | 1016.2 |
| 20260508135116 | 14 | 196 | 3.2 | 3.2 | 0.00 | 0.00 | 0.00 | 51 | 1016.3 |
| 20260508134613 | 14 | 213 | 3.2 | 3.2 | 0.00 | 0.00 | 0.00 | 54 | 1016.0 |
| 20260508134110 | 13 | 195 | 3.2 | 3.2 | 0.00 | 0.00 | 0.00 | 55 | 1016.2 |
| 20260508133607 | 13 | 209 | 3.2 | 4.8 | 0.00 | 0.00 | 0.00 | 57 | 1016.3 |
| 20260508133104 | 13 | 218 | 0.0 | 1.6 | 0.00 | 0.00 | 0.00 | 58 | 1016.2 |
| 20260508132602 | 12 | 199 | 3.2 | 4.8 | 0.00 | 0.00 | 0.00 | 59 | 1016.3 |
| 20260508132059 | 12 | 206 | 3.2 | 3.2 | 0.00 | 0.00 | 0.00 | 61 | 1016.5 |
| 20260508131554 | 11 | 208 | 1.6 | 3.2 | 0.00 | 0.00 | 0.00 | 62 | 1016.6 |
| 20260508131051 | 11 | 192 | 3.2 | 3.2 | 0.00 | 0.00 | 0.00 | 67 | 1016.3 |
| 20260508130548 | 11 | 211 | 1.6 | 1.6 | 0.00 | 0.00 | 0.00 | 69 | 1016.6 |
| 20260508130044 | 10 | 204 | 0.0 | 1.6 | 0.00 | 0.00 | 0.00 | 71 | 1016.8 |
| 20260508125540 | 10 | 207 | 0.0 | 1.6 | 0.00 | 0.00 | 0.00 | 73 | 1016.6 |
| 20260508125038 | 9 | 205 | 1.6 | 1.6 | 0.00 | 0.00 | 0.00 | 74 | 1016.7 |
| 20260508124536 | 7 | 200 | 1.6 | 1.6 | 0.00 | 0.00 | 0.00 | 77 | 1016.6 |
| 20260508124033 | 7 | 200 | 0.0 | 0.0 | 0.00 | 0.00 | 0.00 | 80 | 1016.7 |
| 20260508123531 | 7 | 200 | 1.6 | 3.2 | 0.00 | 0.00 | 0.00 | 81 | 1016.6 |
| 20260508123027 | 7 | 200 | 1.6 | 1.6 | 0.00 | 0.00 | 0.00 | 81 | 1016.6 |
| 20260508122524 | 6 | 200 | 1.6 | 3.2 | 0.00 | 0.00 | 0.00 | 85 | 1016.6 |
| 20260508122021 | 6 | 204 | 0.0 | 0.0 | 0.00 | 0.00 | 0.00 | 89 | 1016.5 |
| 20260508121520 | 5 | 226 | 0.0 | 0.0 | 0.00 | 0.00 | 0.00 | 91 | 1016.5 |
| 20260508121017 | 5 | 226 | 0.0 | 0.0 | 0.00 | 0.00 | 0.00 | 95 | 1016.4 |
| 20260508120514 | 5 | 226 | 0.0 | 0.0 | 0.00 | 0.00 | 0.00 | 98 | 1016.6 |
| 20260508120013 | 4 | 226 | 0.0 | 0.0 | 0.00 | 0.00 | 0.00 | 99 | 1016.4 |
| 20260508115510 | 3 | 226 | 0.0 | 0.0 | 0.00 | 0.00 | 0.00 | 99 | 1016.4 |
| 20260508115006 | 3 | 227 | 0.0 | 0.0 | 0.00 | 0.00 | 0.00 | 99 | 1016.3 |
| 20260508114503 | 2 | 227 | 0.0 | 0.0 | 0.00 | 0.00 | 0.00 | 99 | 1016.4 |
| 20260508113959 | 1 | 227 | 0.0 | 0.0 | 0.00 | 0.00 | 0.00 | 99 | 1016.4 |
| 20260508113458 | 1 | 227 | 0.0 | 0.0 | 0.00 | 0.00 | 0.00 | 99 | 1016.4 |
| 20260508112954 | 1 | 227 | 0.0 | 0.0 | 0.00 | 0.00 | 0.00 | 99 | 1016.3 |
| 20260508112446 | 1 | 227 | 0.0 | 0.0 | 0.00 | 0.00 | 0.00 | 99 | 1016.3 |
| 20260508111942 | 1 | 227 | 0.0 | 0.0 | 0.00 | 0.00 | 0.00 | 99 | 1016.2 |
| 20260508111440 | 1 | 227 | 0.0 | 0.0 | 0.00 | 0.00 | 0.00 | 99 | 1016.1 |
| 20260508110937 | 0 | 227 | 0.0 | 0.0 | 0.00 | 0.00 | 0.00 | 99 | 1016.1 |
| 20260508110435 | 0 | 227 | 0.0 | 0.0 | 0.00 | 0.00 | 0.00 | 99 | 1016.1 |
| 20260508105934 | 0 | 227 | 0.0 | 0.0 | 0.00 | 0.00 | 0.00 | 99 | 1016.1 |
| 20260508105431 | 0 | 227 | 0.0 | 0.0 | 0.00 | 0.00 | 0.00 | 99 | 1016.1 |
| 20260508104928 | 0 | 227 | 0.0 | 0.0 | 0.00 | 0.00 | 0.00 | 99 | 1016.1 |
| 20260508104425 | 0 | 227 | 0.0 | 0.0 | 0.00 | 0.00 | 0.00 | 99 | 1016.2 |
| 20260508103921 | 0 | 227 | 0.0 | 0.0 | 0.00 | 0.00 | 0.00 | 99 | 1016.1 |
| 20260508103419 | 0 | 227 | 0.0 | 0.0 | 0.00 | 0.00 | 0.00 | 99 | 1016.0 |
| 20260508102916 | 0 | 227 | 0.0 | 0.0 | 0.00 | 0.00 | 0.00 | 99 | 1016.0 |
| 20260508102415 | 0 | 227 | 0.0 | 0.0 | 0.00 | 0.00 | 0.00 | 99 | 1016.0 |
| 20260508101911 | 0 | 227 | 0.0 | 0.0 | 0.00 | 0.00 | 0.00 | 99 | 1016.0 |
| 20260508101409 | 0 | 227 | 0.0 | 0.0 | 0.00 | 0.00 | 0.00 | 99 | 1015.8 |
| 20260508100905 | 0 | 227 | 0.0 | 0.0 | 0.00 | 0.00 | 0.00 | 99 | 1015.8 |
| 20260508100404 | 0 | 227 | 0.0 | 0.0 | 0.00 | 0.00 | 0.00 | 99 | 1015.8 |
| 20260508095859 | 0 | 227 | 0.0 | 0.0 | 0.00 | 0.00 | 0.00 | 99 | 1015.8 |
| 20260508095358 | 0 | 227 | 0.0 | 0.0 | 0.00 | 0.00 | 0.00 | 99 | 1015.8 |
| 20260508094854 | 0 | 227 | 0.0 | 0.0 | 0.00 | 0.00 | 0.00 | 99 | 1015.7 |
| 20260508094351 | 0 | 227 | 0.0 | 0.0 | 0.00 | 0.00 | 0.00 | 99 | 1015.8 |
| 20260508093848 | 0 | 227 | 0.0 | 0.0 | 0.00 | 0.00 | 0.00 | 99 | 1015.7 |
| 20260508093346 | 0 | 227 | 0.0 | 0.0 | 0.00 | 0.00 | 0.00 | 99 | 1015.8 |
| 20260508092843 | 0 | 227 | 0.0 | 0.0 | 0.00 | 0.00 | 0.00 | 98 | 1015.7 |
| 20260508092341 | 0 | 227 | 0.0 | 0.0 | 0.00 | 0.00 | 0.00 | 98 | 1015.6 |
| 20260508091839 | 0 | 227 | 0.0 | 0.0 | 0.00 | 0.00 | 0.00 | 98 | 1015.7 |
| 20260508091335 | 0 | 227 | 0.0 | 0.0 | 0.00 | 0.00 | 0.00 | 98 | 1015.7 |
| 20260508090833 | 0 | 227 | 0.0 | 0.0 | 0.00 | 0.00 | 0.00 | 98 | 1015.8 |
| 20260508090331 | 0 | 227 | 0.0 | 0.0 | 0.00 | 0.00 | 0.00 | 98 | 1015.8 |
| 20260508085831 | 0 | 227 | 0.0 | 0.0 | 0.00 | 0.00 | 0.00 | 98 | 1015.7 |
| 20260508085329 | 0 | 227 | 0.0 | 0.0 | 0.00 | 0.00 | 0.00 | 98 | 1015.7 |
| 20260508084825 | 0 | 227 | 0.0 | 0.0 | 0.00 | 0.00 | 0.00 | 98 | 1015.5 |
| 20260508084322 | 0 | 227 | 0.0 | 0.0 | 0.00 | 0.00 | 0.00 | 98 | 1015.8 |
| 20260508083819 | 0 | 227 | 0.0 | 0.0 | 0.00 | 0.00 | 0.00 | 98 | 1015.4 |
| 20260508083317 | 0 | 227 | 0.0 | 0.0 | 0.00 | 0.00 | 0.00 | 98 | 1015.4 |
| 20260508082816 | 0 | 227 | 0.0 | 0.0 | 0.00 | 0.00 | 0.00 | 98 | 1015.6 |
| 20260508082314 | 0 | 227 | 0.0 | 0.0 | 0.00 | 0.00 | 0.00 | 98 | 1015.7 |
| 20260508081811 | 0 | 227 | 0.0 | 0.0 | 0.00 | 0.00 | 0.00 | 98 | 1015.6 |
| 20260508081308 | 0 | 227 | 0.0 | 0.0 | 0.00 | 0.00 | 0.00 | 98 | 1015.5 |
| 20260508080805 | 0 | 227 | 0.0 | 0.0 | 0.00 | 0.00 | 0.00 | 98 | 1015.6 |
| 20260508080303 | 0 | 227 | 0.0 | 0.0 | 0.00 | 0.00 | 0.00 | 98 | 1015.4 |
| 20260508075759 | 0 | 227 | 0.0 | 0.0 | 0.00 | 0.00 | 0.00 | 98 | 1015.6 |
| 20260508075256 | 0 | 227 | 0.0 | 0.0 | 0.00 | 0.00 | 0.00 | 98 | 1015.5 |
| 20260508074754 | 0 | 227 | 0.0 | 0.0 | 0.00 | 0.00 | 0.00 | 98 | 1015.7 |
| 20260508074251 | 0 | 227 | 0.0 | 0.0 | 0.00 | 0.00 | 0.00 | 98 | 1015.5 |
| 20260508073748 | 1 | 227 | 0.0 | 0.0 | 0.00 | 0.00 | 0.00 | 98 | 1015.5 |
| 20260508073246 | 1 | 227 | 0.0 | 0.0 | 0.00 | 0.00 | 0.00 | 98 | 1015.4 |